Location: Erdweis
(48.5167°N, 15.3500°E)
Time: 02:26:04
(UTC+00:00)

Cosmos 1536 Rocket - Pass Details

Date: 18 September 2020
Orbit: 606 x 632 km, 82.5° (Epoch: 29 October)

Event Time Altitude Azimuth Distance (km) Brightness Sun altitude
Rises 18:31:36 0° 352° (N) 2,915 7.4 -15.0°
Reaches altitude 10° 18:33:51 10° 356° (N) 2,008 6.5 -15.3°
Maximum altitude 18:38:17 64° 78° (ENE) 699 3.5 -16.0°
Enters shadow 18:41:16 20° 156° (SSE) 1,455 5.0 -16.5°
